Location: Ajisawe
(8.4333°N, 4.3833°E)
Time: 23:40:16
(UTC+00:00)

Vanguard 1 Rocket - Pass Details

Date: 24 April 2021
Orbit: 652 x 4224 km, 34.3° (Epoch: 10 May)

Event Time Altitude Azimuth Distance (km) Brightness Sun altitude
Rises 04:50:49 0° 215° (SW) 8,410 11.9 -10.1°
Reaches altitude 10° 04:58:59 10° 203° (SSW) 7,421 11.7 -8.1°
Maximum altitude 05:17:59 26° 154° (SSE) 5,442 11.5 -3.6°
Drops below altitude 10° 05:31:48 10° 105° (ESE) 5,496 12.6 -0.2°
Sets 05:36:21 0° 92° (E) 5,993 13.5 0.8°
